QPF
0.01 0.01 0.02 0.02 0.02 0.02 0.03 0.05 0.06 0.07 0.09 0.10 0.09 0.06 0.05 0.04 0.04 0.05 0.06 0.07 0.06 0.05 0.04 0.04 0.04 0.04 0.05 0.05 0.06 0.07 0.07 0.08 0.08 0.07 0.06 0.06 0.06 0.05 0.04 0.03 0.02 0.03 0.03
0.01 0.01 0.01 0.02 0.02 0.02 0.02 0.02 0.03 0.04 0.06 0.09 0.10 0.12 0.11 0.09 0.08 0.07 0.08 0.08 0.08 0.07 0.06 0.05 0.04 0.04 0.04 0.04 0.04 0.05 0.05 0.06 0.06 0.06 0.06 0.07 0.06 0.06 0.05 0.04 0.03 0.03 0.03
0.01 0.01 0.02 0.02 0.02 0.02 0.01 0.01 0.02 0.03 0.03 0.06 0.09 0.10 0.12 0.12 0.11 0.09 0.08 0.08 0.07 0.07 0.06 0.05 0.05 0.05 0.05 0.06 0.05 0.05 0.05 0.05 0.06 0.06 0.07 0.07 0.07 0.07 0.07 0.06 0.06 0.05 0.04
0.01 0.01 0.02 0.02 0.02 0.02 0.02 0.02 0.02 0.02 0.03 0.03 0.06 0.08 0.08 0.08 0.08 0.08 0.07 0.06 0.05 0.04 0.04 0.04 0.04 0.05 0.05 0.05 0.06 0.05 0.05 0.05 0.05 0.06 0.06 0.06 0.07 0.06 0.06 0.08 0.08 0.06 0.05
0.01 0.01 0.01 0.02 0.02 0.02 0.03 0.03 0.02 0.03 0.03 0.03 0.03 0.04 0.04 0.04 0.04 0.05 0.05 0.05 0.04 0.03 0.03 0.03 0.03 0.04 0.05 0.05 0.05 0.05 0.05 0.05 0.05 0.05 0.06 0.06 0.07 0.07 0.06 0.07 0.07 0.06 0.06
0.01 0.01 0.01 0.01 0.01 0.02 0.02 0.02 0.02 0.02 0.02 0.03 0.03 0.03 0.03 0.02 0.02 0.02 0.03 0.03 0.03 0.03 0.03 0.02 0.02 0.03 0.03 0.04 0.05 0.06 0.06 0.06 0.06 0.06 0.06 0.06 0.06 0.05 0.04 0.05 0.06 0.07 0.07
0.01 0.01 0.01 0.01 0.01 0.01 0.01 0.01 0.01 0.01 0.01 0.01 0.01 0.02 0.02 0.02 0.02 0.01 0.02 0.01 0.01 0.01 0.02 0.02 0.02 0.03 0.04 0.05 0.07 0.07 0.07 0.07 0.07 0.07 0.06 0.05 0.04 0.05 0.06 0.06 0.07 0.07 0.06
0.01 0.01 0.01 0.01 0.01 0.01 0.00 0.00 0.00 0.00 0.00 0.00 0.01 0.01 0.01 0.02 0.01 0.01 0.01 0.01 0.01 0.01 0.01 0.01 0.01 0.02 0.05 0.07 0.07 0.06 0.05 0.05 0.06 0.06 0.05 0.04 0.04 0.05 0.07 0.08 0.08 0.08 0.07
0.00 0.00 0.00 0.01 0.01 0.01 0.01 0.00 0.00 0.00 0.00 0.00 0.00 0.01 0.01 0.01 0.01 0.01 0.01 0.01 0.01 0.01 0.01 0.01 0.03 0.06 0.07 0.06 0.04 0.04 0.03 0.02 0.03 0.03 0.04 0.04 0.04 0.05 0.06 0.07 0.08 0.07 0.06
0.00 0.00 0.00 0.01 0.01 0.01 0.01 0.01 0.00 0.00 0.00 0.00 0.00 0.00 0.00 0.01 0.01 0.01 0.01 0.01 0.01 0.01 0.01 0.02 0.04 0.04 0.04 0.03 0.02 0.02 0.02 0.01 0.01 0.02 0.03 0.02 0.03 0.04 0.05 0.05 0.05 0.06 0.05
0.00 0.00 0.00 0.01 0.01 0.01 0.01 0.01 0.01 0.00 0.00 0.00 0.00 0.01 0.01 0.01 0.01 0.02 0.02 0.02 0.01 0.01 0.01 0.02 0.02 0.02 0.02 0.02 0.02 0.02 0.02 0.02 0.02 0.02 0.02 0.03 0.03 0.04 0.05 0.05 0.06 0.05 0.05
0.01 0.01 0.00 0.00 0.01 0.01 0.01 0.01 0.01 0.01 0.01 0.01 0.01 0.01 0.01 0.01 0.01 0.01 0.02 0.02 0.02 0.02 0.02 0.01 0.01 0.01 0.01 0.02 0.02 0.02 0.02 0.02 0.02 0.02 0.03 0.03 0.03 0.03 0.04 0.05 0.05 0.05 0.05
0.00 0.00 0.00 0.01 0.01 0.01 0.01 0.01 0.01 0.01 0.02 0.02 0.01 0.01 0.01 0.01 0.01 0.01 0.02 0.02 0.02 0.02 0.02 0.02 0.02 0.02 0.02 0.02 0.02 0.02 0.02 0.02 0.02 0.02 0.02 0.02 0.03 0.03 0.04 0.04 0.05 0.05 0.04
0.01 0.01 0.01 0.01 0.01 0.01 0.01 0.01 0.01 0.01 0.02 0.03 0.03 0.03 0.02 0.01 0.01 0.01 0.02 0.02 0.02 0.02 0.02 0.02 0.02 0.02 0.03 0.03 0.03 0.03 0.02 0.02 0.02 0.02 0.02 0.02 0.03 0.03 0.04 0.04 0.04 0.05 0.04
0.01 0.01 0.01 0.01 0.01 0.01 0.01 0.01 0.02 0.02 0.02 0.03 0.03 0.04 0.03 0.02 0.02 0.02 0.02 0.02 0.02 0.02 0.02 0.02 0.02 0.02 0.02 0.02 0.02 0.02 0.02 0.02 0.02 0.02 0.02 0.03 0.03 0.04 0.04 0.04 0.04 0.05 0.04
0.01 0.01 0.01 0.01 0.01 0.01 0.01 0.01 0.01 0.02 0.02 0.02 0.02 0.02 0.02 0.02 0.01 0.01 0.01 0.02 0.02 0.02 0.02 0.02 0.02 0.02 0.02 0.02 0.02 0.02 0.03 0.03 0.02 0.02 0.02 0.03 0.03 0.03 0.04 0.04 0.04 0.05 0.05
0.01 0.01 0.01 0.01 0.01 0.01 0.01 0.01 0.01 0.01 0.01 0.01 0.01 0.01 0.01 0.01 0.01 0.01 0.01 0.01 0.02 0.02 0.02 0.02 0.02 0.02 0.02 0.02 0.02 0.02 0.03 0.03 0.02 0.02 0.02 0.03 0.03 0.03 0.03 0.03 0.04 0.04 0.05
0.01 0.01 0.01 0.01 0.01 0.01 0.01 0.01 0.01 0.01 0.01 0.01 0.01 0.01 0.01 0.01 0.01 0.01 0.01 0.01 0.01 0.02 0.02 0.01 0.01 0.02 0.02 0.02 0.02 0.02 0.03 0.03 0.03 0.03 0.03 0.03 0.03 0.03 0.03 0.03 0.03 0.04 0.04
0.01 0.01 0.01 0.01 0.01 0.01 0.01 0.01 0.01 0.01 0.01 0.01 0.01 0.01 0.01 0.01 0.01 0.01 0.01 0.01 0.01 0.01 0.01 0.01 0.01 0.02 0.02 0.02 0.02 0.02 0.02 0.03 0.03 0.03 0.03 0.03 0.03 0.04 0.03 0.03 0.04 0.04 0.04
0.01 0.01 0.01 0.01 0.01 0.00 0.01 0.01 0.01 0.01 0.01 0.01 0.01 0.01 0.02 0.02 0.01 0.01 0.01 0.01 0.01 0.01 0.01 0.01 0.01 0.01 0.02 0.03 0.03 0.02 0.02 0.02 0.03 0.03 0.02 0.02 0.03 0.03 0.04 0.03 0.04 0.04 0.04
0.02 0.02 0.01 0.01 0.01 0.01 0.01 0.01 0.01 0.01 0.01 0.01 0.01 0.01 0.01 0.01 0.01 0.01 0.01 0.01 0.01 0.01 0.01 0.01 0.01 0.01 0.01 0.02 0.02 0.02 0.03 0.03 0.03 0.03 0.03 0.03 0.03 0.03 0.04 0.04 0.04 0.04 0.04
0.02 0.01 0.01 0.01 0.01 0.01 0.01 0.01 0.01 0.01 0.01 0.01 0.01 0.01 0.01 0.01 0.01 0.01 0.01 0.01 0.01 0.01 0.01 0.01 0.01 0.01 0.01 0.02 0.02 0.02 0.03 0.03 0.03 0.03 0.03 0.03 0.03 0.03 0.03 0.04 0.04 0.03 0.03
0.02 0.01 0.01 0.01 0.01 0.01 0.01 0.01 0.01 0.01 0.01 0.01 0.01 0.00 0.00 0.01 0.01 0.01 0.01 0.01 0.01 0.01 0.01 0.01 0.01 0.01 0.01 0.02 0.02 0.02 0.03 0.03 0.03 0.03 0.04 0.03 0.03 0.03 0.03 0.04 0.03 0.03 0.03
0.02 0.02 0.01 0.01 0.01 0.01 0.01 0.01 0.01 0.01 0.01 0.01 0.01 0.01 0.01 0.01 0.01 0.01 0.01 0.01 0.01 0.01 0.02 0.02 0.02 0.02 0.01 0.01 0.02 0.02 0.02 0.02 0.03 0.03 0.03 0.03 0.03 0.03 0.03 0.03 0.03 0.03 0.03
0.02 0.01 0.01 0.01 0.01 0.01 0.01 0.01 0.01 0.01 0.01 0.01 0.01 0.01 0.01 0.01 0.01 0.01 0.01 0.02 0.01 0.02 0.02 0.02 0.02 0.02 0.02 0.01 0.01 0.02 0.02 0.02 0.02 0.03 0.03 0.03 0.03 0.03 0.03 0.03 0.03 0.02 0.03
0.02 0.02 0.01 0.01 0.01 0.02 0.02 0.02 0.02 0.02 0.01 0.01 0.01 0.01 0.01 0.01 0.01 0.01 0.02 0.02 0.02 0.02 0.01 0.01 0.02 0.02 0.02 0.02 0.02 0.02 0.02 0.02 0.02 0.02 0.03 0.03 0.03 0.02 0.02 0.02 0.02 0.02 0.02
MSLP
1014.48 1014.86 1015.30 1015.74 1016.13 1016.42 1016.62 1016.71 1016.72 1016.68 1016.60 1016.49 1016.35 1016.18 1015.95 1015.66 1015.30 1014.87 1014.40 1013.91 1013.44 1013.03 1012.70 1012.46 1012.30 1012.20 1012.12 1012.03 1011.90 1011.70 1011.42 1011.09 1010.73 1010.39 1010.10 1009.92 1009.87 1009.98 1010.25 1010.68 1011.23 1011.89 1012.63
1014.56 1014.89 1015.29 1015.70 1016.06 1016.34 1016.52 1016.61 1016.62 1016.58 1016.51 1016.42 1016.32 1016.18 1015.99 1015.74 1015.41 1015.01 1014.53 1014.02 1013.51 1013.03 1012.61 1012.29 1012.05 1011.90 1011.80 1011.72 1011.63 1011.49 1011.29 1011.04 1010.74 1010.42 1010.13 1009.91 1009.79 1009.81 1009.99 1010.32 1010.81 1011.42 1012.13
1014.68 1014.96 1015.31 1015.66 1015.98 1016.22 1016.37 1016.45 1016.45 1016.41 1016.35 1016.28 1016.20 1016.10 1015.95 1015.74 1015.44 1015.06 1014.59 1014.07 1013.52 1012.99 1012.51 1012.12 1011.82 1011.63 1011.51 1011.45 1011.40 1011.33 1011.21 1011.03 1010.79 1010.51 1010.23 1009.98 1009.81 1009.76 1009.86 1010.11 1010.53 1011.09 1011.77
1014.87 1015.08 1015.36 1015.64 1015.89 1016.08 1016.19 1016.23 1016.22 1016.18 1016.13 1016.07 1016.02 1015.94 1015.83 1015.65 1015.39 1015.03 1014.58 1014.05 1013.48 1012.92 1012.39 1011.95 1011.62 1011.39 1011.26 1011.21 1011.20 1011.18 1011.13 1011.01 1010.83 1010.59 1010.33 1010.07 1009.87 1009.77 1009.80 1010.00 1010.37 1010.89 1011.55
1015.13 1015.26 1015.43 1015.62 1015.79 1015.91 1015.97 1015.99 1015.96 1015.92 1015.87 1015.82 1015.78 1015.73 1015.64 1015.48 1015.24 1014.90 1014.47 1013.94 1013.37 1012.79 1012.25 1011.78 1011.41 1011.16 1011.03 1010.98 1010.99 1011.02 1011.01 1010.95 1010.82 1010.62 1010.38 1010.13 1009.91 1009.79 1009.79 1009.96 1010.30 1010.82 1011.48
1015.42 1015.45 1015.51 1015.60 1015.67 1015.72 1015.73 1015.71 1015.66 1015.61 1015.57 1015.53 1015.50 1015.46 1015.37 1015.23 1015.00 1014.68 1014.25 1013.74 1013.17 1012.59 1012.04 1011.56 1011.18 1010.92 1010.77 1010.73 1010.76 1010.80 1010.83 1010.82 1010.73 1010.57 1010.36 1010.13 1009.93 1009.81 1009.82 1009.98 1010.33 1010.85 1011.53
1015.69 1015.60 1015.55 1015.52 1015.50 1015.48 1015.43 1015.38 1015.33 1015.27 1015.23 1015.20 1015.17 1015.12 1015.03 1014.88 1014.66 1014.33 1013.92 1013.42 1012.86 1012.29 1011.75 1011.27 1010.89 1010.63 1010.48 1010.44 1010.47 1010.53 1010.58 1010.60 1010.55 1010.44 1010.27 1010.09 1009.92 1009.84 1009.87 1010.06 1010.43 1010.97 1011.68
1015.84 1015.65 1015.49 1015.36 1015.25 1015.15 1015.07 1014.99 1014.93 1014.87 1014.83 1014.80 1014.76 1014.70 1014.60 1014.44 1014.20 1013.87 1013.46 1012.97 1012.44 1011.89 1011.36 1010.90 1010.53 1010.27 1010.13 1010.09 1010.12 1010.19 1010.27 1010.32 1010.32 1010.26 1010.15 1010.03 1009.92 1009.89 1009.96 1010.19 1010.59 1011.16 1011.89
1015.83 1015.54 1015.28 1015.06 1014.88 1014.73 1014.61 1014.51 1014.45 1014.40 1014.36 1014.32 1014.27 1014.20 1014.07 1013.89 1013.63 1013.30 1012.89 1012.41 1011.90 1011.38 1010.89 1010.46 1010.11 1009.86 1009.73 1009.69 1009.74 1009.83 1009.93 1010.02 1010.07 1010.07 1010.04 1009.99 1009.95 1009.98 1010.11 1010.37 1010.79 1011.38 1012.12
1015.62 1015.26 1014.92 1014.62 1014.38 1014.18 1014.04 1013.94 1013.87 1013.83 1013.79 1013.75 1013.70 1013.60 1013.46 1013.25 1012.98 1012.64 1012.23 1011.78 1011.29 1010.81 1010.36 1009.96 1009.64 1009.42 1009.30 1009.28 1009.34 1009.46 1009.60 1009.73 1009.85 1009.92 1009.97 1010.00 1010.04 1010.13 1010.31 1010.60 1011.03 1011.60 1012.32
1015.23 1014.80 1014.41 1014.05 1013.76 1013.54 1013.37 1013.27 1013.20 1013.17 1013.14 1013.10 1013.04 1012.93 1012.77 1012.54 1012.26 1011.92 1011.53 1011.10 1010.65 1010.21 1009.80 1009.44 1009.16 1008.97 1008.88 1008.88 1008.97 1009.11 1009.29 1009.49 1009.67 1009.83 1009.96 1010.08 1010.20 1010.35 1010.55 1010.85 1011.27 1011.80 1012.47
1014.68 1014.22 1013.78 1013.39 1013.07 1012.82 1012.64 1012.53 1012.47 1012.44 1012.42 1012.38 1012.31 1012.19 1012.02 1011.80 1011.52 1011.19 1010.81 1010.42 1010.01 1009.62 1009.25 1008.94 1008.70 1008.54 1008.47 1008.50 1008.61 1008.80 1009.03 1009.28 1009.54 1009.79 1010.01 1010.22 1010.41 1010.61 1010.84 1011.13 1011.51 1011.98 1012.57
1014.04 1013.57 1013.11 1012.70 1012.35 1012.08 1011.90 1011.78 1011.72 1011.68 1011.66 1011.62 1011.54 1011.43 1011.26 1011.04 1010.77 1010.46 1010.12 1009.76 1009.40 1009.05 1008.73 1008.46 1008.25 1008.12 1008.08 1008.14 1008.28 1008.50 1008.78 1009.11 1009.45 1009.78 1010.10 1010.39 1010.65 1010.89 1011.15 1011.43 1011.76 1012.16 1012.65
1013.38 1012.90 1012.44 1012.02 1011.66 1011.38 1011.18 1011.05 1010.98 1010.93 1010.90 1010.85 1010.78 1010.66 1010.49 1010.28 1010.04 1009.75 1009.45 1009.13 1008.82 1008.51 1008.23 1007.99 1007.82 1007.71 1007.69 1007.77 1007.94 1008.20 1008.53 1008.92 1009.34 1009.77 1010.18 1010.56 1010.89 1011.19 1011.47 1011.74 1012.03 1012.36 1012.76
1012.74 1012.27 1011.81 1011.39 1011.03 1010.74 1010.53 1010.38 1010.29 1010.22 1010.17 1010.11 1010.02 1009.90 1009.74 1009.55 1009.32 1009.07 1008.80 1008.52 1008.24 1007.97 1007.73 1007.52 1007.36 1007.27 1007.27 1007.36 1007.56 1007.85 1008.24 1008.70 1009.20 1009.72 1010.23 1010.70 1011.12 1011.49 1011.80 1012.09 1012.35 1012.64 1012.96
1012.12 1011.68 1011.24 1010.83 1010.47 1010.18 1009.95 1009.78 1009.66 1009.57 1009.49 1009.41 1009.30 1009.17 1009.01 1008.82 1008.62 1008.39 1008.15 1007.90 1007.66 1007.42 1007.19 1007.00 1006.86 1006.78 1006.78 1006.89 1007.11 1007.44 1007.88 1008.40 1008.99 1009.60 1010.21 1010.79 1011.31 1011.76 1012.14 1012.46 1012.74 1013.01 1013.29
1011.50 1011.09 1010.68 1010.30 1009.95 1009.66 1009.42 1009.24 1009.09 1008.96 1008.85 1008.73 1008.60 1008.45 1008.29 1008.10 1007.90 1007.70 1007.48 1007.26 1007.04 1006.82 1006.61 1006.43 1006.29 1006.22 1006.24 1006.36 1006.60 1006.96 1007.45 1008.04 1008.70 1009.42 1010.13 1010.82 1011.45 1012.01 1012.47 1012.86 1013.18 1013.47 1013.74
1010.83 1010.46 1010.09 1009.74 1009.42 1009.14 1008.90 1008.70 1008.53 1008.37 1008.22 1008.07 1007.91 1007.74 1007.56 1007.38 1007.18 1006.99 1006.79 1006.58 1006.38 1006.18 1005.98 1005.81 1005.68 1005.62 1005.64 1005.78 1006.04 1006.44 1006.98 1007.63 1008.37 1009.17 1009.99 1010.79 1011.54 1012.20 1012.76 1013.24 1013.63 1013.96 1014.26
1010.05 1009.73 1009.41 1009.10 1008.82 1008.57 1008.34 1008.13 1007.94 1007.76 1007.58 1007.40 1007.22 1007.03 1006.84 1006.65 1006.46 1006.28 1006.09 1005.90 1005.71 1005.52 1005.34 1005.19 1005.07 1005.01 1005.05 1005.21 1005.49 1005.93 1006.50 1007.21 1008.02 1008.90 1009.81 1010.71 1011.55 1012.31 1012.98 1013.55 1014.02 1014.41 1014.76
1009.14 1008.86 1008.60 1008.34 1008.10 1007.88 1007.68 1007.49 1007.30 1007.11 1006.92 1006.72 1006.52 1006.33 1006.14 1005.95 1005.77 1005.60 1005.43 1005.26 1005.09 1004.91 1004.75 1004.61 1004.51 1004.47 1004.52 1004.70 1005.01 1005.47 1006.08 1006.83 1007.68 1008.62 1009.60 1010.56 1011.49 1012.34 1013.09 1013.73 1014.28 1014.74 1015.14
1008.10 1007.86 1007.64 1007.44 1007.26 1007.08 1006.92 1006.75 1006.58 1006.40 1006.22 1006.03 1005.84 1005.65 1005.47 1005.30 1005.15 1004.99 1004.85 1004.70 1004.55 1004.40 1004.26 1004.14 1004.06 1004.04 1004.11 1004.31 1004.64 1005.12 1005.75 1006.52 1007.40 1008.37 1009.38 1010.38 1011.35 1012.25 1013.06 1013.76 1014.36 1014.88 1015.32
1006.96 1006.75 1006.58 1006.43 1006.30 1006.18 1006.06 1005.93 1005.80 1005.66 1005.50 1005.34 1005.18 1005.03 1004.88 1004.75 1004.62 1004.50 1004.39 1004.27 1004.15 1004.03 1003.92 1003.82 1003.76 1003.77 1003.87 1004.08 1004.43 1004.92 1005.56 1006.32 1007.20 1008.16 1009.17 1010.18 1011.15 1012.06 1012.89 1013.62 1014.25 1014.80 1015.28
1005.80 1005.61 1005.47 1005.37 1005.29 1005.22 1005.15 1005.08 1005.00 1004.90 1004.80 1004.69 1004.58 1004.48 1004.39 1004.31 1004.23 1004.16 1004.08 1004.00 1003.92 1003.83 1003.74 1003.67 1003.64 1003.68 1003.80 1004.02 1004.38 1004.87 1005.50 1006.25 1007.10 1008.03 1009.00 1009.97 1010.91 1011.80 1012.61 1013.34 1013.98 1014.53 1015.03
1004.70 1004.52 1004.41 1004.34 1004.30 1004.27 1004.26 1004.24 1004.21 1004.18 1004.14 1004.10 1004.06 1004.03 1004.00 1003.98 1003.96 1003.94 1003.92 1003.88 1003.83 1003.77 1003.71 1003.68 1003.67 1003.73 1003.87 1004.11 1004.47 1004.95 1005.56 1006.28 1007.09 1007.97 1008.88 1009.79 1010.68 1011.52 1012.29 1012.98 1013.61 1014.16 1014.66
1003.74 1003.56 1003.45 1003.40 1003.39 1003.40 1003.43 1003.46 1003.49 1003.52 1003.55 1003.58 1003.62 1003.66 1003.71 1003.76 1003.80 1003.83 1003.85 1003.85 1003.84 1003.81 1003.79 1003.78 1003.80 1003.88 1004.04 1004.30 1004.66 1005.14 1005.73 1006.41 1007.18 1007.99 1008.84 1009.68 1010.50 1011.27 1011.99 1012.65 1013.24 1013.78 1014.28
1002.96 1002.77 1002.66 1002.61 1002.61 1002.64 1002.70 1002.77 1002.85 1002.93 1003.03 1003.13 1003.24 1003.36 1003.47 1003.59 1003.69 1003.77 1003.83 1003.87 1003.89 1003.89 1003.90 1003.91 1003.97 1004.08 1004.26 1004.54 1004.92 1005.39 1005.97 1006.62 1007.35 1008.11 1008.89 1009.67 1010.42 1011.13 1011.79 1012.40 1012.96 1013.49 1013.99
Thickness
5478 5480 5481 5482 5484 5486 5488 5490 5492 5493 5495 5496 5497 5499 5500 5502 5503 5503 5505 5505 5505 5506 5506 5507 5507 5508 5509 5509 5510 5511 5512 5513 5515 5520 5519 5520 5521 5522 5523 5523 5523 5523 5524
5465 5467 5468 5470 5472 5473 5475 5477 5479 5481 5482 5483 5484 5486 5487 5488 5490 5491 5492 5493 5493 5494 5495 5495 5496 5496 5497 5497 5498 5499 5501 5502 5504 5507 5509 5508 5509 5511 5512 5512 5512 5513 5513
5453 5454 5455 5457 5458 5460 5462 5464 5466 5467 5469 5470 5471 5472 5474 5475 5476 5477 5479 5480 5480 5481 5482 5483 5484 5484 5485 5485 5486 5488 5489 5491 5493 5495 5498 5498 5499 5500 5500 5501 5501 5501 5502
5440 5441 5442 5444 5446 5447 5449 5451 5452 5454 5455 5457 5458 5459 5460 5461 5463 5464 5465 5466 5467 5469 5469 5471 5472 5472 5473 5473 5475 5477 5478 5480 5482 5483 5486 5487 5488 5488 5488 5489 5490 5490 5491
5428 5429 5430 5432 5434 5436 5437 5438 5439 5440 5442 5443 5444 5446 5447 5448 5450 5452 5453 5454 5455 5456 5457 5458 5459 5460 5462 5463 5465 5467 5468 5470 5471 5472 5474 5476 5477 5477 5478 5478 5479 5479 5480
5417 5418 5420 5421 5422 5424 5425 5426 5426 5427 5429 5430 5431 5433 5434 5436 5438 5440 5441 5442 5443 5444 5446 5446 5447 5449 5451 5453 5456 5458 5459 5460 5461 5462 5463 5465 5468 5468 5467 5467 5467 5467 5469
5407 5408 5409 5410 5411 5412 5413 5414 5414 5415 5416 5417 5419 5420 5422 5424 5426 5428 5429 5430 5430 5432 5433 5434 5436 5438 5439 5441 5444 5446 5448 5450 5452 5453 5454 5456 5457 5458 5457 5457 5457 5457 5458
5396 5397 5398 5399 5400 5401 5402 5403 5403 5404 5404 5405 5406 5408 5410 5412 5414 5416 5417 5418 5419 5420 5422 5423 5425 5426 5428 5430 5432 5434 5436 5438 5440 5442 5444 5446 5447 5447 5446 5447 5445 5444 5444
5386 5387 5388 5388 5389 5391 5391 5391 5392 5392 5393 5393 5395 5396 5398 5400 5403 5404 5405 5406 5408 5409 5411 5412 5414 5416 5418 5420 5421 5423 5425 5427 5428 5431 5433 5434 5435 5436 5435 5433 5432 5432 5433
5377 5378 5378 5379 5379 5380 5380 5380 5381 5381 5382 5382 5384 5385 5387 5389 5391 5393 5395 5396 5397 5399 5400 5402 5403 5406 5407 5409 5410 5411 5413 5415 5416 5418 5420 5421 5422 5423 5423 5423 5423 5421 5421
5369 5369 5369 5370 5369 5369 5370 5370 5370 5370 5371 5371 5373 5374 5376 5378 5381 5383 5385 5385 5387 5389 5390 5392 5393 5396 5398 5399 5400 5401 5403 5404 5405 5406 5407 5409 5411 5411 5411 5411 5411 5411 5410
5360 5360 5360 5360 5360 5360 5359 5360 5360 5360 5360 5361 5362 5364 5366 5368 5370 5373 5375 5377 5379 5379 5381 5383 5384 5386 5388 5389 5390 5392 5393 5393 5394 5395 5397 5399 5400 5400 5400 5400 5400 5400 5400
5352 5352 5351 5351 5350 5350 5349 5350 5350 5350 5350 5352 5353 5354 5357 5358 5360 5363 5365 5367 5369 5370 5372 5374 5375 5376 5377 5378 5380 5381 5382 5382 5383 5384 5386 5388 5389 5389 5389 5389 5389 5389 5389
5344 5344 5343 5342 5342 5341 5341 5341 5341 5341 5341 5343 5344 5346 5347 5349 5351 5353 5355 5356 5358 5360 5361 5364 5365 5366 5366 5367 5369 5370 5371 5373 5374 5374 5376 5377 5377 5378 5378 5378 5378 5378 5378
5336 5336 5335 5334 5333 5332 5332 5332 5332 5333 5333 5335 5336 5337 5338 5340 5343 5346 5347 5348 5349 5351 5352 5353 5353 5354 5356 5357 5358 5359 5361 5362 5363 5364 5365 5366 5367 5367 5367 5367 5367 5367 5368
5329 5329 5328 5326 5325 5325 5324 5325 5325 5326 5328 5329 5330 5330 5332 5334 5336 5338 5339 5341 5342 5343 5343 5343 5344 5345 5346 5347 5349 5350 5351 5353 5354 5355 5356 5357 5357 5357 5357 5357 5358 5357 5358
5321 5320 5319 5319 5318 5317 5317 5317 5317 5319 5320 5321 5322 5324 5325 5327 5328 5330 5332 5333 5334 5334 5334 5335 5335 5337 5338 5339 5341 5342 5343 5344 5345 5346 5347 5348 5348 5348 5349 5349 5349 5349 5349
5314 5314 5313 5311 5310 5310 5309 5309 5309 5310 5311 5312 5314 5315 5317 5319 5321 5322 5323 5324 5324 5325 5326 5326 5328 5329 5330 5332 5333 5335 5335 5336 5337 5338 5339 5340 5340 5340 5341 5341 5341 5341 5341
5308 5307 5306 5305 5304 5303 5303 5302 5302 5302 5303 5304 5306 5307 5309 5311 5313 5313 5315 5315 5316 5317 5318 5319 5320 5322 5324 5325 5327 5327 5328 5329 5331 5331 5333 5333 5333 5333 5333 5333 5334 5335 5335
5301 5301 5300 5299 5298 5297 5296 5296 5296 5296 5296 5297 5298 5300 5301 5303 5303 5304 5305 5306 5308 5309 5311 5312 5314 5315 5317 5319 5320 5321 5322 5323 5324 5325 5326 5327 5327 5327 5327 5327 5328 5328 5329
5295 5295 5294 5293 5291 5291 5290 5289 5289 5289 5290 5291 5292 5293 5295 5295 5295 5296 5297 5298 5300 5302 5304 5306 5307 5309 5311 5312 5314 5315 5316 5318 5319 5320 5321 5321 5322 5322 5322 5323 5323 5323 5323
5289 5289 5288 5286 5285 5284 5284 5283 5283 5284 5284 5284 5285 5286 5288 5288 5288 5289 5290 5291 5293 5295 5297 5300 5302 5303 5305 5307 5308 5310 5312 5313 5314 5315 5316 5316 5317 5317 5318 5318 5318 5318 5318
5283 5283 5282 5280 5279 5279 5278 5277 5277 5277 5278 5278 5279 5279 5280 5281 5282 5283 5284 5286 5288 5290 5292 5295 5297 5299 5301 5303 5304 5306 5308 5309 5310 5311 5311 5312 5312 5313 5313 5314 5314 5314 5314
5278 5277 5276 5275 5274 5273 5272 5272 5272 5272 5272 5273 5273 5273 5274 5275 5276 5277 5279 5280 5283 5285 5287 5290 5292 5294 5296 5298 5300 5302 5304 5306 5307 5307 5308 5308 5308 5309 5309 5309 5309 5310 5310
5273 5272 5271 5270 5269 5268 5268 5267 5267 5267 5267 5268 5268 5269 5269 5270 5271 5272 5274 5276 5278 5280 5282 5285 5287 5289 5292 5293 5295 5298 5300 5302 5303 5304 5304 5305 5305 5305 5305 5305 5305 5305 5305
5267 5266 5266 5265 5264 5264 5263 5263 5263 5263 5263 5263 5264 5264 5265 5266 5267 5268 5269 5271 5273 5275 5278 5280 5282 5284 5287 5289 5291 5293 5295 5297 5299 5300 5300 5301 5301 5301 5301 5301 5301 5301 5301